Погода в Молепололе

Ботсвана     24°24′12″S   25°30′35″E
темп.,
°C
ветер,
м/с
пор.,
м/с
влажн.,
%
обл.,
%
осадки,
мм/ч
давл.,
гПа
погр.,
м
27 ноября, сб
сб2723:00+20св8125998 0.1 1019986
02:00+17св9157120 0.1 1018766
05:00+16св815733 0.0 1018753
08:00+19ссв810616 0.0 1019873
11:00+26ссв794557 0.0 10171672
14:00+28ссв6836100 0.1 10122193
17:00+25св5846100 0.4 1012612
20:00+22всв8125590 0.5 1014585
28 ноября, вс
вс2823:00+20всв61256100 0.0 1015758
02:00+19всв4662100 0.1 1016671
05:00+16св611711 0.0 1016551
08:00+19ссв58612 0.0 1017712
11:00+28с710330 0.0 10131707
14:00+33сз7926100 0.0 10093371
17:00+28зсз5837100 0.3 1009742
20:00+25сз71251100 0.4 1010295
29 ноября, пн
пн2923:00+23с6125656 0.0 1012544
02:00+21з11664 0.0 101215
05:00+20с34672 0.0 101394
08:00+26с574755 0.0 1014880
11:00+31ссз5631100 0.0 10122207
14:00+34ссз5523100 0.0 10083724
17:00+33сз672321 0.1 10062364
20:00+21ююв9136348 1.3 1014410
30 ноября, вт
вт3023:00+22в496395 0.1 1013326
02:00+20св4117391 0.1 1011459
05:00+19св12794 0.0 101379
08:00+26ссв46450 0.0 1013631
11:00+33с55260 0.0 10102570
14:00+36ссз4418100 0.0 10074735
17:00+33ссв562280 0.1 10061796
20:00+27вюв2436100 0.3 1009152
1 декабря, ср
ср123:00+25с2449100 0.6 1013140
02:00+23св5125181 0.6 1011392
05:00+23ссв7135084 0.0 1011356
08:00+27св693811 0.0 1013893
11:00+32св772525 0.0 10112212
14:00+35ссв661996 0.1 10073992
17:00+27вюв243549 0.3 1008173
20:00+28всв373281 0.3 1009167